Regional Weather Roundup
Issued by NWS

Home | Current Version | Previous Version | Text Only | Print | Product List | Glossary Off
Versions: 1 2 3 4 5 6 7 8 9 10 11 12 13 14 15 16 17 18 19 20 21 22 23 24 25 26 27 28 29 30 31 32 33 34 35 36 37 38 39 40 41 42 43 44 45 46 47 48 49 50

000
ASUS45 KSLC 170610
RWRUT

UTAH REGIONAL WEATHER ROUNDUP
NATIONAL WEATHER SERVICE SALT LAKE CITY UT
1200 AM MDT TUE OCT 17 2017

UTZ001>011-023>025-170700-

NORTHERN UTAH

CITY           SKY/WX    TMP DP  RH WIND       PRES   REMARKS
BRIGHAM CITY   CLEAR     39  27  62 CALM      30.34R
HILL AFB       CLEAR     48  16  28 E14       30.32F
LOGAN          CLEAR     34  24  67 NE3       30.34R
OGDEN          CLEAR     44  22  41 S6        30.32S
SALT LAKE CITY CLEAR     46  35  65 CALM      30.32S
TOOELE VALLEY  CLEAR     32  23  69 S9        30.32S WCI  24
WENDOVER       PTCLDY    40  19  43 CALM      30.33S
WEST JORDAN    CLEAR     44  22  42 SW7       30.33S

$$

UTZ011>015-024>027-170700-

CENTRAL/NORTHEAST UTAH

CITY           SKY/WX    TMP DP  RH WIND       PRES   REMARKS
PROVO AIRPORT  CLEAR     41  27  57 SE3       30.34S
MOAB/CANYONLAN PTCLDY    39  11  31 SW3       30.33R
DELTA          MOCLDY    36  21  55 S5        30.32F WCI  32
PRICE          PTCLDY    41   6  23 NE10      30.37F
ROOSEVELT      CLOUDY    34  25  69 W5        30.37S WCI  30
VERNAL         CLOUDY    35  19  52 W3        30.35S

$$

UTZ013>016-019>022-027-170700-

SOUTHERN UTAH

CITY           SKY/WX    TMP DP  RH WIND       PRES   REMARKS
BRYCE CANYON   PTCLDY    29   1  30 W6        30.47S WCI  23
CEDAR CITY     PTCLDY    46   2  16 S6        30.34S
MILFORD        MOCLDY    38  11  32 CALM      30.33R
ST GEORGE      CLEAR     60   9  13 E3        30.22R
HANKSVILLE     MOCLDY    39  10  30 NW5       30.36S
BLANDING         N/A     43   8  23 N8        30.43F

$$

REGIONAL REPORTS     COLORADO/ARIZONA

CITY           SKY/WX    TMP DP  RH WIND       PRES   REMARKS
CRAIG, CO      CLOUDY    25  16  68 CALM      30.40R
GRAND JUNCTION CLOUDY    44  12  27 E5        30.35S
RIFLE, CO      CLOUDY    38  13  35 CALM      30.40S
MONTROSE, CO   CLOUDY    37  17  44 S12       30.42S WCI  29
CORTEZ, CO     CLOUDY    34  17  50 E6        30.39S WCI  29
COLORADO CITY    N/A     37   9  30 SE7       30.34S WCI  32
PAGE, AZ       PTCLDY    53  14  21 CALM      30.30R
GRAND CANYON   CLEAR     36   6  28 NE3       30.42S HAZE
KINGMAN, AZ    CLEAR     55  17  22 E7        30.21S
FLAGSTAFF, AZ  CLEAR     39  17  41 CALM      30.43F

$$

REGIONAL REPORTS    NEVADA/IDAHO/WYOMING

CITY           SKY/WX    TMP DP  RH WIND       PRES   REMARKS
LAS VEGAS, NV  PTCLDY    66  11  11 SW3       30.14S
ELY, NY        MOCLDY    35   0  22 S13       30.38R WCI  26
ELKO, NV       CLOUDY    38  16  40 E3        30.31S
POCATELLO, ID  CLOUDY    34  27  75 CALM      30.31S
BURLEY, ID     CLEAR     36  28  73 CALM      30.28S
FORT BRIDGER,    N/A     46   4  17 SW12      30.42S
EVANSTON, WY   CLOUDY    42   6  22 SE6       30.41S
ROCK SPRINGS,  CLOUDY    45   7  21 W16       30.38S
KEMMERER, WY   CLOUDY    39   7  26 W7        30.40F WCI  34

$$



USA.gov is the U.S. government's official web portal to all federal, state and local government web resources and services.